Location: Winnipauk Village
(41.1295°N, 73.4171°W)
Time: 20:00:26
(UTC+00:00)

X-37B - Pass Details

Date: 03 August 2021
Orbit: 381 x 393 km, 45.0° (Epoch: 29 August)

Event Time Altitude Azimuth Distance (km) Brightness Sun altitude
Exits shadow 09:21:22 - 270° (W) 1,782 3.4 -5.9°
Reaches altitude 10° 09:22:20 10° 274° (W) 1,395 2.9 -5.7°
Maximum altitude 09:25:23 46° 349° (N) 524 1.4 -5.2°
Drops below altitude 10° 09:28:26 10° 65° (ENE) 1,400 5.4 -4.7°
Sets 09:30:33 0° 71° (ENE) 2,255 6.8 -4.4°
